Location: Recife
(8.0585°S, 34.8848°W)
Time: 13:09:17
(UTC-03:00)

Vanguard 2 - Pass Details

Date: 22 April 2026
Orbit: 553 x 2895 km, 32.9° (Epoch: 13 May)

Event Time Altitude Azimuth Distance (km) Brightness Sun altitude
Exits shadow 03:12:46 36° 217° (SW) 3,607 10.5 -32.2°
Maximum altitude 03:20:25 65° 150° (SSE) 2,446 9.9 -30.3°
Drops below altitude 10° 03:31:20 10° 70° (ENE) 3,888 12.1 -27.7°
Sets 03:33:58 0° 67° (ENE) 4,602 12.7 -27.0°
